Location: Tarleton Observatory
(32.2162°N, 98.0976°W)
Time: 18:32:52
(UTC-05:00)

Daily predictions for brighter satellites

Satellite Brightness Start Highest point End
(mag) Time Altitude Azimuth Time Altitude Azimuth Time Altitude Azimuth
Atlas Centaur 2 3.7 20:20:12 10° SSW 20:25:46 28° SSE 20:32:14 10° E
Cosmos 2360 4.4 20:27:57 10° S 20:33:25 50° ESE 20:38:57 10° NNE
Molniya-1 3.4 20:32:11 10° S 20:33:29 21° ESE 20:34:52 10° ENE
FALCON 9 R/B 0.4 20:31:43 10° WSW 20:35:24 88° NNW 20:37:36 10° ENE
HJ-1C 3.5 20:34:03 10° SSE 20:37:27 64° ENE 20:40:53 10° N
Cosmos 1242 Rocket 3.2 20:33:50 10° SSW 20:37:29 63° W 20:41:08 10° N
Meteor 1-27 4.4 20:42:08 10° S 20:47:46 82° W 20:53:22 10° N
Cosmos 1455 2.3 20:45:54 10° S 20:49:36 52° E 20:53:18 10° NNE
In-Cosmos 22 Rocket 4.4 20:47:27 10° NNW 20:52:44 69° W 20:57:59 10° S
Cosmos 1869 4.1 20:50:13 10° SSE 20:53:38 29° E 20:57:04 10° NNE
CENTAUR R/B 4.1 20:50:54 10° WSW 20:56:22 37° NW 21:02:29 10° NNE
SJ-6B 4.0 20:53:29 10° S 20:57:11 44° W 21:00:59 10° NNW
Cosmos 1697 Rocket 4.3 20:56:00 10° SW 21:01:14 39° WNW 21:06:30 10° N
OTV 4 0.3 20:58:38 10° WNW 21:01:30 73° NNE 21:03:10 22° ESE
CZ-3B DEB 0.6 20:57:45 10° NW 21:01:49 62° NE 21:03:10 23° ESE
Cosmos 1400 Rocket 2.7 21:01:19 10° N 21:05:14 88° ENE 21:09:10 10° S
ALOS 3.6 21:03:51 10° S 21:08:14 42° W 21:12:40 10° NNW
Cosmos 1892 2.7 21:07:27 10° N 21:11:15 82° W 21:15:03 10° S
USA 186 1.3 21:11:06 27° SE 21:12:17 57° ENE 21:14:58 10° N
H-2A R/B 3.6 21:10:04 10° S 21:13:54 51° W 21:17:42 10° NNW
Cosmos 2297 Rocket 3.8 21:08:55 10° NW 21:13:58 34° WSW 21:19:01 10° SSW
BREEZE-M DEB (TANK) 3.9 21:12:04 10° WNW 21:14:45 40° SW 21:19:51 13° SSE
DELTA 2 R/B (1) 3.8 21:09:24 10° WNW 21:15:01 67° NNE 21:18:45 21° E
Nadezhda 4 Rocket 4.1 21:10:51 10° N 21:17:07 80° W 21:23:25 10° S
Cosmos 1315 Rocket 2.8 21:13:39 10° N 21:17:41 60° E 21:20:23 19° SSE
Cosmos 1634 Rocket 3.9 21:12:33 10° S 21:18:48 73° E 21:25:06 10° N
Cosmos 2322 Rocket 2.2 21:16:21 10° S 21:21:48 57° ESE 21:27:18 10° NNE
Cosmos 1707 Rocket 3.8 21:17:26 10° SSW 21:21:52 72° W 21:26:18 10° N
Cosmos 2263 Rocket 3.8 21:19:35 10° NNE 21:23:01 16° ENE 21:24:23 15° ENE
Meteor 2-3 Rocket 4.4 21:18:24 10° NNW 21:23:58 57° W 21:29:36 10° S
Cosmos 1092 Rocket 4.0 21:19:33 10° N 21:25:55 85° E 21:32:16 10° S
Spot 2 Rocket 4.0 21:20:55 10° S 21:25:56 62° WSW 21:31:00 10° NNW
CZ-2D R/B 4.3 21:28:39 10° S 21:32:24 46° W 21:36:09 10° NNW
Cosmos 2360 Rocket 3.4 21:34:16 23° E 21:34:16 23° E 21:37:31 10° NE
Cosmos 1980 Rocket 3.9 21:28:38 10° SW 21:33:47 35° WNW 21:38:58 10° N
Cosmos 1733 Rocket 3.9 21:30:21 10° NNE 21:34:17 30° E 21:34:27 30° E
Cosmos 1862 Rocket 4.0 21:34:03 36° ESE 21:34:51 39° E 21:39:01 10° NNE
Meteor 1-29 3.0 21:33:13 10° N 21:36:42 81° WNW 21:39:41 13° SSW
Intercosmos 25 Rocket 2.7 21:36:12 49° SSE 21:36:53 70° E 21:40:14 10° N
Helios 1B rocket 2.8 21:33:14 10° N 21:37:18 66° WNW 21:41:21 10° SSW
Lacrosse 4 Rocket 2.7 21:35:48 10° N 21:39:26 25° ENE 21:39:39 25° ENE
SL-8 R/B 3.9 21:35:16 10° NW 21:40:03 65° SW 21:41:56 35° SSE
Meteor 2-20 Rocket 4.4 21:34:43 10° N 21:40:47 65° E 21:44:22 26° SSE
GENESIS II 4.1 21:37:13 10° SSW 21:41:13 66° ESE 21:45:15 10° NE
Cosmos 1825 2.3 21:39:36 10° N 21:43:19 52° E 21:43:21 52° E
Cosmos 1862 4.2 21:40:56 10° NNE 21:44:08 34° ENE 21:44:08 34° ENE
Envisat 2.9 21:42:59 27° SSE 21:45:47 84° ENE 21:50:53 10° N
Cosmos 1939 Rocket 2.8 21:45:36 51° SE 21:46:29 71° ENE 21:50:30 10° N
CZ-4B DEB 2.7 21:48:17 74° NW 21:48:17 74° NW 21:51:06 10° NNW
Cosmos 2242 Rocket 3.7 21:44:01 10° S 21:48:33 78° W 21:53:03 10° N
SL-16 R/B 2.2 21:43:05 10° SSW 21:48:45 82° WNW 21:54:26 10° NNE
SJ-11-01 4.1 21:49:40 39° SSE 21:51:24 84° ENE 21:56:05 10° N
SPOT 5 4.4 21:54:50 21° ENE 21:54:50 21° ENE 21:57:44 10° NNE
Centaur AC-42 3.7 21:31:09 10° W 21:54:33 40° SSW 21:57:14 29° SSE
GPS 2-04 Rocket1 4.1 21:55:59 10° W 21:58:46 26° SW 21:58:46 26° SW
Cosmos 1627 Rocket 4.5 21:53:03 10° N 21:59:16 80° W 22:03:09 24° S
Cosmos 2279 Rocket 3.9 21:54:57 10° S 22:01:12 88° W 22:07:29 10° N
Resurs 01 Rocket 4.2 22:01:31 10° SW 22:04:28 17° W 22:07:27 10° NW
ATLAS 5 CENTAUR R/B 3.9 22:00:22 10° N 22:04:59 22° NE 22:05:54 21° ENE
Helios 1A 4.2 22:03:27 23° SSW 22:05:33 39° W 22:09:32 10° NNW
OAO 3 Rocket 3.5 22:01:03 10° W 22:05:55 63° N 22:07:07 47° NE
CCE 1 Rocket 4.3 21:59:27 10° W 22:07:04 56° SSW 22:07:45 52° SSE
SEDSat Delta rocket 3.6 22:01:51 10° WSW 22:07:21 73° S 22:08:32 57° ESE
USA 234 3.2 22:07:21 46° SE 22:09:32 82° NE 22:16:07 10° NW
ARGOS 4.1 22:11:51 32° NE 22:11:51 32° NE 22:15:59 10° N
Atlas Centaur 2 2.9 22:07:33 10° WSW 22:14:48 62° SSE 22:16:53 48° ESE
ERS-1 Rocket 2.8 22:22:11 88° SSE 22:22:15 89° E 22:27:17 10° NNW
Cosmos 1428 Rocket 4.4 22:18:11 10° N 22:24:18 83° W 22:25:44 55° S
Cosmos 1408 4.1 22:21:28 10° NNW 22:24:35 33° W 22:24:35 33° W
MOS 1-B Rocket 4.4 22:26:13 44° ENE 22:26:13 44° ENE 22:31:16 10° N
ERBS 4.5 22:24:23 10° NW 22:26:02 26° NW 22:26:02 26° NW
SeaSat 1 3.3 22:39:58 41° NNE 22:39:58 41° NNE 22:43:30 10° NNW
USA 245 4.5 22:46:03 67° NNE 22:46:03 67° NNE 22:50:52 10° N
MetOp-A 4.4 22:49:41 64° NW 22:49:41 64° NW 22:54:19 10° NNW
Milstar 3 3.1 22:45:01 10° W 22:50:57 49° SW 22:50:57 49° SW
USA 229 DEB 3.5 22:51:55 86° WSW 22:52:06 88° WNW 22:59:02 10° NNE
USA 229 3.5 22:52:13 89° NW 22:52:13 89° NW 22:59:08 10° NNE
H-2A R/B 3.5 23:04:41 30° N 23:04:41 30° N 23:07:12 10° N
Terra 4.1 23:05:45 16° NNE 23:05:45 16° NNE 23:06:55 10° N
Cosmos 2263 Rocket 3.0 23:01:49 10° NNW 23:06:05 47° WNW 23:06:05 47° WNW
Cosmos 2360 Rocket 3.5 23:15:51 34° W 23:16:46 36° WNW 23:21:57 10° N
Lacrosse 4 Rocket 4.1 23:14:33 10° NW 23:16:01 17° WNW 23:16:01 17° WNW
CZ-4C R/B 4.5 23:39:58 10° N 23:44:55 22° NE 23:44:55 22° NE
ATLAS 5 CENTAUR R/B 3.7 23:43:56 10° NW 23:47:28 36° NW 23:47:28 36° NW
